Theta_e
330 334 350 354 355 355 355 355 353 352 352 354 355 355 354 354 353 353 354 353 352 352 351 351 351 351 351 349 349 348 347 347 347 347 348 344 346 346 347 347 346 343 348
330 336 347 352 354 354 354 353 352 352 352 353 356 356 355 354 354 354 354 352 352 353 350 351 352 351 351 351 349 349 347 346 345 345 345 344 344 346 347 346 346 343 346
334 338 346 350 352 353 353 352 352 351 352 353 356 356 355 354 354 354 353 352 352 353 352 351 351 350 349 349 348 347 345 344 344 342 341 336 337 344 345 346 347 346 346
335 338 345 347 351 352 352 352 352 351 352 353 355 355 355 354 354 354 353 351 352 353 350 349 350 348 347 348 347 345 343 342 341 339 335 336 337 342 345 344 346 346 345
334 339 344 345 350 351 351 351 351 351 351 352 353 354 354 354 353 353 352 351 352 352 351 349 349 346 346 347 346 345 343 342 340 338 336 335 335 342 341 344 344 345 345
333 340 342 346 350 351 351 351 351 352 351 352 352 353 354 353 353 352 352 351 351 350 350 349 347 345 346 346 345 345 343 342 338 335 335 339 338 341 342 342 342 343 344
332 337 341 344 348 349 350 350 351 351 352 351 351 352 352 352 351 351 351 351 350 349 349 348 344 346 346 345 344 344 342 339 334 332 332 333 338 343 344 344 344 343 342
332 339 340 338 342 345 347 348 349 349 351 350 350 350 350 350 350 350 350 350 349 349 348 347 343 343 344 344 342 342 337 333 331 328 328 330 338 339 338 336 336 339 340
329 336 340 341 339 336 341 343 345 346 348 348 348 348 347 346 347 348 347 348 348 348 346 345 342 341 343 342 337 336 330 328 325 326 326 327 336 337 336 335 335 335 336
324 333 338 339 341 344 344 335 337 341 342 344 343 341 338 339 341 341 339 344 347 346 345 343 341 340 341 335 335 329 326 324 319 320 321 326 333 331 330 329 328 329 333
311 329 336 336 339 342 342 338 332 334 335 336 336 333 332 342 340 336 337 339 343 342 342 341 340 338 332 330 328 324 320 315 315 315 318 328 328 327 325 324 324 324 326
302 314 328 332 335 340 341 342 342 343 342 341 341 340 340 339 339 338 332 332 336 335 337 338 337 327 320 318 318 317 311 310 311 312 316 326 325 324 323 323 323 323 323
301 307 313 330 332 336 339 340 340 341 341 340 339 340 341 337 334 335 336 333 333 327 332 331 323 310 310 312 307 307 306 306 307 309 317 324 324 323 323 323 322 323 323
297 301 310 323 329 335 337 337 338 337 339 339 340 339 338 335 334 334 334 332 329 326 318 310 305 301 302 303 306 303 302 303 304 306 312 318 323 322 324 323 322 322 322
295 299 303 313 321 329 333 337 336 336 336 338 338 339 338 334 332 332 331 328 325 320 314 306 300 300 299 302 302 302 299 300 301 303 305 313 319 322 324 325 323 322 322
295 298 300 305 312 324 329 332 333 335 335 335 336 336 335 332 330 329 325 323 319 317 312 303 300 300 300 300 299 298 297 297 298 300 302 307 318 320 324 326 326 325 326
295 298 300 302 312 317 326 330 331 333 333 332 333 332 333 330 327 324 322 319 317 312 305 302 300 299 299 297 297 296 295 295 296 297 298 302 307 315 323 325 325 324 327
296 296 298 302 308 318 324 328 330 331 329 329 329 329 328 327 325 323 319 316 311 305 303 301 300 299 298 296 296 297 296 296 296 296 296 299 304 307 316 322 320 322 321
293 295 296 299 303 310 317 326 328 330 328 329 327 327 327 326 324 321 317 312 308 305 302 300 299 299 297 295 295 294 295 295 296 297 295 296 302 303 305 314 314 315 319
292 294 296 298 301 309 316 324 326 326 327 326 325 325 323 323 322 319 313 308 306 303 301 300 298 297 298 297 296 293 293 293 293 293 294 297 299 300 300 300 299 302 313
290 292 294 295 298 305 311 319 322 322 323 322 323 322 321 321 320 316 309 306 304 303 300 299 297 295 292 296 294 294 293 293 292 292 293 294 296 298 298 296 295 296 297
288 290 293 294 296 301 310 318 323 324 322 321 321 320 321 320 319 316 310 307 304 302 301 298 297 293 292 295 292 291 289 292 293 293 292 293 293 296 296 295 295 294 294
285 288 291 294 296 301 308 317 319 320 319 318 317 317 317 318 317 315 312 309 305 302 300 298 298 296 293 293 293 292 287 288 289 291 291 291 293 293 294 295 295 296 294
285 287 289 293 297 302 309 314 316 317 316 316 316 316 316 316 315 313 310 308 305 302 300 299 298 297 297 294 291 292 291 291 289 287 289 289 291 292 292 291 293 294 294
285 285 287 291 296 303 309 314 316 317 317 317 315 313 313 313 313 312 310 307 305 303 301 299 298 296 297 295 293 291 290 289 289 289 286 287 288 284 286 290 290 291 293
285 286 286 290 294 301 309 312 315 317 315 314 313 311 310 311 311 310 310 308 307 304 301 300 299 298 297 297 293 292 291 291 289 288 286 285 286 285 286 287 289 288 289
Wind_Speed
7 6 21 20 22 23 22 19 20 18 17 18 20 23 23 23 23 22 20 19 19 19 19 18 18 18 18 17 16 15 15 14 14 12 16 16 15 14 16 14 11 10 16
2 8 21 23 23 22 21 20 20 19 17 17 18 24 23 24 24 23 21 20 19 19 20 19 17 17 16 16 15 15 15 14 12 12 15 16 14 15 15 12 12 13 16
5 9 16 20 21 22 21 20 21 20 20 18 19 22 24 24 24 24 22 21 20 19 20 18 18 17 16 16 16 16 16 14 12 12 12 6 8 15 13 13 13 15 15
5 7 15 20 21 22 21 20 20 21 21 21 19 22 24 24 24 23 23 22 21 19 20 20 18 18 17 16 16 16 15 14 13 11 5 6 7 15 15 14 14 14 13
5 8 14 20 22 21 20 20 20 22 21 22 21 22 24 24 24 24 23 23 22 21 20 20 19 20 17 17 17 16 16 14 11 8 5 6 5 11 14 13 12 12 11
6 7 13 22 24 24 23 22 21 21 22 21 22 21 23 24 24 23 23 22 22 22 20 20 19 20 17 16 17 16 14 13 11 6 5 7 7 14 14 13 12 11 10
5 5 9 20 22 23 24 24 23 22 23 22 22 23 23 24 24 23 22 21 22 21 21 19 21 18 18 17 16 16 15 12 8 6 5 5 8 13 13 14 14 14 12
6 5 8 15 20 23 23 25 25 24 24 24 24 24 24 24 24 24 23 22 21 21 22 19 21 19 17 16 16 17 16 13 8 7 6 5 13 12 12 10 10 10 11
7 5 7 13 13 14 18 21 24 25 23 23 24 24 24 24 24 24 23 22 22 21 22 19 19 20 17 16 15 15 16 14 8 6 6 4 12 13 12 11 10 10 9
7 6 9 9 15 12 13 15 17 21 22 21 22 21 19 20 21 21 19 21 22 22 21 21 17 19 18 15 16 14 16 13 7 6 4 5 13 12 11 10 9 8 8
11 7 10 9 11 14 12 13 14 13 16 17 17 17 15 13 14 15 17 21 22 22 22 20 18 16 14 15 16 16 13 5 5 4 4 11 12 11 10 10 9 8 8
15 9 10 10 10 11 9 12 14 15 12 13 14 15 12 12 12 14 15 19 19 17 19 19 19 17 12 6 7 11 5 5 4 4 3 11 11 10 9 9 9 8 8
18 14 12 12 7 9 9 8 7 9 10 9 14 13 13 9 9 9 8 8 10 13 8 11 10 6 9 8 6 6 6 5 4 4 5 10 11 9 8 8 7 7 8
19 18 13 9 7 9 8 7 9 9 10 10 12 14 11 7 10 11 9 10 10 9 9 6 5 6 7 8 9 8 6 5 3 3 4 7 8 9 9 8 7 7 8
20 18 13 8 9 12 14 8 9 10 9 13 12 14 12 11 11 10 10 11 10 9 10 9 6 7 7 7 8 10 6 7 5 3 2 7 4 7 9 9 8 7 8
21 18 13 12 9 12 13 13 10 9 10 10 11 13 15 11 11 11 11 10 10 10 8 9 9 7 6 8 7 8 7 6 6 5 3 3 4 4 5 9 9 8 9
19 17 14 12 11 12 16 14 11 9 9 9 10 12 16 14 14 14 11 10 10 10 11 9 8 6 7 4 8 7 6 6 5 6 4 2 3 5 5 6 9 8 6
16 14 13 12 13 12 13 14 12 11 8 7 7 10 15 15 16 14 12 11 10 11 9 11 9 8 8 6 6 5 5 5 6 6 4 3 2 3 8 11 8 6 3
20 16 12 10 11 14 13 14 10 11 11 10 8 9 13 15 16 13 12 11 10 8 11 9 5 9 10 7 7 5 4 4 5 4 5 5 4 3 3 7 8 7 6
21 18 14 11 12 12 10 11 7 8 8 8 8 9 13 11 15 12 11 14 13 10 9 9 6 4 4 10 9 6 4 4 3 4 3 2 3 4 3 4 3 3 5
12 15 17 13 12 7 7 8 9 10 8 8 9 12 14 13 15 15 12 14 11 13 13 13 10 11 3 7 8 5 4 4 4 3 3 2 3 3 4 3 1 1 2
18 14 15 12 10 9 6 6 9 8 8 8 10 10 14 15 15 14 17 16 16 11 11 13 12 7 3 6 5 4 4 1 1 1 2 3 3 3 3 3 2 1 0
13 13 14 14 12 10 9 7 7 5 5 7 9 9 10 14 14 16 16 15 17 15 13 15 14 11 9 4 4 6 4 5 4 1 2 2 4 2 3 4 3 1 1
17 13 12 12 10 11 10 9 13 10 8 5 9 9 9 12 12 11 15 16 19 16 15 14 12 8 13 12 3 2 4 6 5 2 1 1 2 4 4 3 4 3 2
16 13 11 13 10 11 8 11 12 12 8 8 9 12 11 8 9 8 12 14 14 14 15 16 15 11 10 10 6 5 3 3 3 5 4 3 1 2 3 3 4 4 4
10 9 7 9 13 12 11 11 15 16 12 11 11 10 9 8 8 9 11 12 12 10 13 13 13 13 11 10 4 5 5 6 4 4 4 3 2 2 1 2 4 4 4
Wind_Direction
227 182 181 188 176 171 173 175 176 176 169 158 156 165 162 160 157 158 158 158 154 152 149 147 140 140 135 131 127 124 122 121 115 117 111 114 106 101 100 90 86 92 98
243 179 185 184 178 174 173 173 176 174 172 165 158 161 161 160 159 158 158 159 159 155 151 150 144 142 133 130 125 122 119 113 110 97 107 114 111 105 97 104 102 100 95
207 184 182 186 183 175 173 174 173 177 171 170 162 158 161 161 162 160 159 159 159 160 155 156 148 139 132 130 129 128 126 120 114 106 101 101 114 113 110 97 104 102 103
192 184 185 184 184 180 176 174 174 177 176 171 169 162 162 162 162 162 160 159 161 162 158 157 149 144 141 135 131 129 127 123 120 112 105 103 111 119 113 110 100 107 107
239 181 191 185 179 181 180 176 177 177 180 175 173 169 162 162 163 164 164 162 162 161 158 158 151 150 147 141 137 133 128 128 120 109 112 113 106 116 116 103 98 91 86
254 220 197 189 183 181 181 177 179 180 179 180 176 174 168 165 165 166 167 166 165 164 158 160 157 156 149 146 143 140 139 136 118 108 106 124 115 118 117 120 111 99 89
288 255 213 196 192 188 184 181 180 183 180 182 180 178 175 170 168 168 169 169 166 158 157 160 163 156 150 150 147 140 136 134 122 111 103 85 106 113 118 111 104 101 89
285 275 255 213 197 192 193 186 183 184 184 182 183 180 178 175 171 170 169 167 166 162 154 162 166 161 152 153 147 142 134 131 120 115 108 99 105 115 117 115 110 83 79
286 259 241 230 221 198 194 193 185 184 187 185 185 184 180 178 173 172 170 168 167 164 155 162 169 161 155 149 142 142 129 125 120 121 118 108 118 124 119 116 110 107 96
303 262 237 222 222 211 197 197 192 186 185 185 186 189 185 179 176 175 166 165 167 165 159 155 163 162 153 143 136 136 124 118 121 120 120 122 123 125 122 119 116 115 111
323 290 261 216 211 220 211 200 193 193 186 187 185 189 183 183 177 171 173 165 166 163 154 153 160 156 140 132 130 127 115 115 120 122 120 119 129 131 129 126 125 124 126
311 314 295 253 214 220 216 214 206 199 198 198 196 190 191 185 179 177 172 165 161 154 150 157 152 133 120 122 123 116 112 125 119 120 120 127 134 135 133 129 130 134 137
301 301 306 263 221 197 225 214 213 207 199 198 199 187 194 186 182 173 161 151 145 137 148 151 137 134 139 139 133 121 121 117 114 119 136 137 141 140 138 133 138 143 142
301 294 289 289 258 212 219 212 215 220 202 198 198 186 180 182 180 177 172 156 147 148 137 125 139 122 124 121 129 121 121 120 120 116 118 122 139 145 144 138 143 151 149
285 289 283 279 277 239 219 218 213 215 208 205 198 189 185 183 179 167 168 151 153 156 145 139 135 132 127 123 126 126 126 119 119 109 90 105 94 150 149 143 146 154 156
273 275 281 275 269 264 229 218 227 214 212 210 199 191 187 175 173 169 160 155 154 155 150 141 143 138 139 134 129 117 131 125 127 120 107 99 96 32 171 148 137 142 154
257 265 266 273 264 261 244 220 216 219 204 209 195 183 184 170 175 159 154 156 157 142 137 123 117 109 113 126 119 118 120 126 124 123 120 108 65 32 78 145 153 140 158
245 246 262 270 271 259 249 228 217 202 189 201 199 185 184 175 172 168 157 150 149 141 134 145 146 148 137 135 130 117 119 117 119 121 120 109 84 63 66 81 81 124 126
251 247 249 254 262 264 254 234 205 192 190 184 191 184 190 178 172 166 155 141 138 133 147 118 160 155 146 127 116 102 91 102 123 120 130 129 125 100 84 87 80 62 57
254 245 239 249 260 263 266 234 196 180 182 173 179 177 179 173 167 160 144 135 131 139 147 138 139 77 138 140 114 84 85 86 80 110 137 137 135 118 99 96 76 44 49
248 242 239 235 241 249 266 228 206 200 180 177 175 172 177 170 168 158 139 131 137 150 161 157 138 142 114 131 107 89 62 77 92 112 130 129 145 140 128 113 93 51 24
250 242 244 230 232 240 243 223 208 193 174 189 170 173 179 174 174 161 159 147 147 145 160 164 160 141 115 189 119 106 134 54 60 191 148 157 183 148 148 141 152 151 58
243 240 240 244 232 230 228 233 189 184 144 173 174 168 181 177 174 171 157 158 159 150 179 175 168 163 150 180 168 137 123 197 127 311 227 185 172 195 158 149 153 171 162
254 241 237 240 238 232 220 222 196 203 178 175 169 162 172 175 166 168 158 165 161 161 175 180 175 170 152 165 108 77 64 131 156 160 272 229 208 201 179 174 164 173 178
269 242 233 238 232 236 216 217 193 190 179 144 157 157 156 164 156 184 160 158 168 171 175 178 176 166 169 159 159 152 104 66 70 133 160 197 250 231 206 179 181 173 184
321 307 265 227 235 227 211 208 189 186 167 153 154 160 154 159 153 156 163 157 171 170 177 180 179 172 170 167 147 143 152 160 166 139 119 142 174 252 198 200 181 195 183